Location: Newark
(48.3831°N, 4.1956°E)
Time: 19:42:14
(UTC+00:00)

Envisat - Pass Details

Date: 21 November 2019
Orbit: 764 x 766 km, 98.1° (Epoch: 07 December)

Event Time Altitude Azimuth Distance (km) Brightness Sun altitude
Rises 19:23:20 0° 225° (SW) 3,223 6.7 -33.6°
Reaches altitude 10° 19:27:52 10° 263° (W) 2,305 6.2 -34.4°
Maximum altitude 19:28:58 11° 276° (W) 2,263 6.2 -34.6°
Drops below altitude 10° 19:30:04 10° 288° (WNW) 2,309 6.3 -34.7°
Sets 19:34:39 0° 327° (NNW) 3,243 6.8 -35.5°
